Terminal Aerodrome Forecast
Issued by NWS

Home | Current Version | Previous Version | Text Only | Print | Product List | Glossary On
Versions: 1 2 3 4 5 6 7 8 9 10 11 12 13 14 15 16 17 18 19 20 21 22 23 24 25 26 27 28 29 30 31 32 33 34 35 36
000
FTUS45 KSLC 270633 AAA
TAFSGU
TAF AMD
KSGU 270633Z 2707/2806 16006KT P6SM VCSH SCT080 BKN100
     FM271000 VRB05KT P6SM SCT070 BKN120
     FM271900 27012KT P6SM SCT120
     FM280300 VRB05KT P6SM SCT120
      AMD LTD TO CLD VIS AND WIND=

USA.gov is the U.S. government's official web portal to all federal, state and local government web resources and services.